CZ-4C DEB, 44613

Orbit data source: Space-Track

CZ-4C DEB, 44613 is space debris in SSO originally from a launch on Tue, 14 Nov 2017 UTC launched from the Taiyaun Space Center, China (TSC). Debris objects in space refer to the collection of defunct objects orbiting the Earth. Examples of debris include non-operational satellites, rocket bodies, and fragments generated from explosions, collisions, or faulty payload assembly.

Loading next visibility...
CZ-4C DEB details
Identifier
44613, 2017-072D
Orbit
SSO
Last TLE update8 hours ago
Origin
Flag of CNCASC (CN / PRC)
ManufacturerUnknown
MissionSpacecraft
Bus & MotorUnknown
MassUnknown
Launch date (UTC)
2017-11-14 (7 years ago)
Launch vehicleUnknown
Launch site
Taiyaun Space Center, China (TSC)
Object type
Payload
Rocket body
Debris
Shape & HBRUnknown
Radar Cross SectionSmall (<0.1 m²)

Expand to show TLE details & history

TLE from 8 hours ago
0 CZ-4C DEB
1 44613U 17072D   24361.16956974  .00000685  00000-0  57675-3 0  9990
2 44613  98.5594  77.8012 0230388   7.9769 352.4951 13.79446622343741
Epoch: 2024-12-26T04:04Z
Definitive object data (Epoch: 2024-12-26T04:04:10.825Z)
Latitude-0.00003°
Longitude-78.39672°
Altitude801.004 km
Speed7.538 km/s
True Right ascension05h 11m 12s
True Declination0° 00' 00"
Sunlit
Object was in full shadow at TLE epoch
Visualization TLE readout
Latitude-73.9722°
Longitude-46.6687°
Altitude969.309 km
Speed7.378 km/s
Apparent Right ascension01h 24m 30s
Apparent Declination-67° 53' 28"
Sunlit
Object is in daylight
Visualization observer readout
Local Sidereal Time11:46:25
Azimuth197.654° SSW
Elevation-58.994°
Doppler factor1
Orbital elements
Apogee altitude1,132.186 km
Perigee altitude793.922 km
Semi-major axis7,341.191 km
Eccentricity0.0230388
Inclination98.5594°
RAAN77.8012°
Arg. of periapsis7.9769°
True anomaly352.14016°
Mean anomaly352.4951°
Eccentric anomaly352.31866°
Mean motion3.45059 °/min
BSTAR0.00057675
Orbital period104.33 mins
Loading maneuver chart data...
Loading historical data...
Loading historical data...
Loading historical data...
Loading historical data...
Loading historical data...
Loading historical data...
Loading historical data...
Other satellites on launch #72 in the year 2017 (2017-11-14 UTC)

CZ-4C DEB Visibility forecast

Observer location: undefined°, undefined

Span
Click to sort rows by Start time (UTC) header in descending order
Start Az.
Max El. time (UTC)
Max El. Az.
Max El.
End time (UTC)
End Az.
8 mins2024-12-26 16:51:54.522Z51.02° ENE2024-12-26 16:55:54.522Z93.152° ESE19.752°2024-12-26 16:59:54.522Z133.54° SE
11 mins2024-12-26 18:34:54.522Z3.093° NNE2024-12-26 18:38:54.522Z304.081° NW42.172°2024-12-26 18:45:54.522Z207.14° SW
8 mins2024-12-27 04:34:54.522Z125.652° SE2024-12-27 04:37:54.522Z78.893° E30.603°2024-12-27 04:42:54.522Z4.74° NNE
7 mins2024-12-27 06:18:54.522Z224.841° SW2024-12-27 06:21:54.522Z272.453° WNW23.296°2024-12-27 06:25:54.522Z320.941° NNW
|